Вернуться в каталог

FENGYUN 1C DEB

АктивенSSO
NORAD 30244·DEBRIS·🇨🇳 China

Запущен May 10, 1999 с Taiyuan Satellite Launch Center

Loading…

Ближайшие Пролёты (ближайшие 24 часа)

TLE

СвежийSource: Space-Track

Эпоха: Sep 13, 2026, 13:00 UTC

1 30244U 99025XD  26256.54186608  .00000331  00000-0  19357-3 0  9992
2 30244  99.1157 157.6419 0008517 256.7490 226.6155 14.15351275 12301

Отслеживайте FENGYUN 1C DEB в реальном времени с AllMySat

Download on the App Store